FW6662 Weather Reports


Display with metric or nautical units.
time (UTC)temp
F
wind
direction
speed
MPH
gust
MPH
rain 1hr
in
rain 24hr
in
rain mn
in
humidity
%
barometer
mb
20260901222505 76 300 0.0 1.0 0.00 0.14 0.11 94 1017.0
20260901222005 76 300 0.0 1.0 0.00 0.14 0.11 94 1016.8
20260901221504 76 300 0.0 1.0 0.00 0.14 0.11 95 1016.7
20260901221025 76 305 0.0 1.0 0.00 0.14 0.11 95 1016.4
20260901220525 77 312 0.0 1.0 0.00 0.14 0.11 94 1016.2
20260901220004 77 312 0.0 1.0 0.00 0.14 0.11 94 1015.7
20260901215504 77 312 0.0 1.0 0.00 0.14 0.11 94 1015.7
20260901215004 77 318 0.0 1.0 0.00 0.15 0.11 94 1015.8
20260901214504 77 328 0.0 1.0 0.00 0.15 0.11 94 1015.8
20260901214025 77 0 0.0 0.0 0.00 0.15 0.11 93 1015.6
20260901213504 77 5 0.0 1.0 0.00 0.17 0.11 94 1015.7
20260901213004 78 5 0.0 1.0 0.00 0.23 0.11 94 1015.8
20260901212504 78 5 0.0 1.0 0.00 0.24 0.11 93 1015.8
20260901212004 78 0 0.0 0.0 0.00 0.24 0.11 93 1015.8
20260901211525 78 5 0.0 1.0 0.00 0.24 0.11 94 1015.9
20260901211004 78 355 0.0 3.0 0.00 0.24 0.11 93 1016.1
20260901210504 78 20 0.0 3.0 0.00 0.24 0.11 93 1016.2
20260901210004 78 33 1.0 6.0 0.00 0.24 0.11 93 1015.8
20260901205504 78 22 1.0 6.0 0.00 0.24 0.11 92 1015.7
20260901205004 78 16 0.0 3.0 0.00 0.24 0.11 93 1015.6
20260901204504 78 23 0.0 3.0 0.00 0.24 0.11 93 1015.6
20260901204004 79 355 0.0 1.0 0.00 0.24 0.11 92 1015.8
20260901203504 79 348 0.0 3.0 0.00 0.24 0.11 91 1015.8
20260901203004 79 345 0.0 3.0 0.00 0.24 0.11 91 1015.8
20260901202504 80 15 0.0 3.0 0.00 0.24 0.11 90 1015.9
20260901202004 80 24 0.0 3.0 0.00 0.24 0.11 89 1016.0
20260901201504 81 10 0.0 3.0 0.00 0.24 0.11 89 1016.0
20260901201004 82 345 0.0 1.0 0.00 0.24 0.11 88 1016.0
20260901200504 82 345 0.0 1.0 0.00 0.24 0.11 87 1016.0
20260901200004 82 345 0.0 1.0 0.00 0.24 0.11 85 1016.1
20260901195504 82 345 0.0 1.0 0.00 0.24 0.11 85 1015.9
20260901195025 83 348 0.0 3.0 0.00 0.24 0.11 85 1016.0
20260901194525 83 1 0.0 3.0 0.00 0.24 0.11 82 1016.1
20260901194004 84 6 0.0 1.0 0.00 0.24 0.11 83 1016.2
20260901193504 83 328 0.0 3.0 0.00 0.24 0.11 84 1016.2
20260901193004 83 177 1.0 6.0 0.00 0.24 0.11 81 1016.1
20260901192504 84 166 1.0 6.0 0.00 0.24 0.11 85 1016.2
20260901192004 84 259 0.0 4.0 0.00 0.24 0.11 84 1016.3
20260901191504 84 296 0.0 3.0 0.00 0.24 0.11 80 1016.2
20260901191025 84 152 0.0 3.0 0.00 0.24 0.11 83 1016.3
20260901190504 84 101 0.0 1.0 0.00 0.24 0.11 86 1016.3
20260901190025 84 57 0.0 1.0 0.00 0.24 0.11 85 1016.4
20260901185504 83 158 0.0 3.0 0.00 0.24 0.11 87 1016.3
20260901185004 83 140 1.0 4.0 0.00 0.24 0.11 83 1016.4
20260901184504 83 132 1.0 4.0 0.00 0.24 0.11 85 1016.4
20260901184004 82 180 1.0 7.0 0.00 0.25 0.11 86 1016.4
20260901183504 81 172 3.0 7.0 0.00 0.25 0.11 88 1016.4
20260901183004 81 165 1.0 6.0 0.00 0.25 0.11 88 1016.4
20260901182525 80 160 1.0 7.0 0.00 0.25 0.11 89 1016.4
20260901182004 80 163 1.0 7.0 0.00 0.26 0.11 93 1016.4
20260901181504 79 179 0.0 3.0 0.00 0.27 0.11 91 1016.4
20260901181004 79 158 1.0 6.0 0.00 0.28 0.11 91 1016.5
20260901180504 78 157 1.0 6.0 0.00 0.30 0.11 93 1016.5
20260901180004 78 192 0.0 1.0 0.00 0.31 0.11 93 1016.4
20260901175504 77 163 1.0 6.0 0.00 0.32 0.11 92 1016.4
20260901175004 77 157 1.0 6.0 0.00 0.34 0.11 94 1016.3
20260901174525 77 164 1.0 6.0 0.00 0.36 0.11 95 1016.3
20260901174005 77 179 1.0 6.0 0.00 0.36 0.11 94 1016.4
20260901173504 77 174 1.0 6.0 0.00 0.36 0.11 97 1016.4
20260901173025 76 182 1.0 4.0 0.00 0.37 0.11 98 1016.4
20260901172504 76 178 1.0 6.0 0.00 0.37 0.11 97 1016.3
20260901172004 76 173 1.0 6.0 0.00 0.37 0.11 97 1016.4
20260901171504 76 300 0.0 1.0 0.00 0.37 0.11 97 1016.7
20260901171004 76 281 0.0 3.0 0.00 0.38 0.11 98 1016.6
20260901170504 76 280 0.0 3.0 0.00 0.38 0.11 98 1016.7
20260901170025 76 263 0.0 1.0 0.00 0.38 0.11 99 1016.5
20260901165504 75 241 0.0 3.0 0.00 0.38 0.11 99 1016.5
20260901165004 75 208 0.0 3.0 0.00 0.38 0.11 99 1016.5
20260901164525 74 135 0.0 1.0 0.00 0.38 0.11 99 1016.7
20260901164025 74 118 0.0 3.0 0.00 0.38 0.11 99 1016.7
20260901163504 74 112 0.0 3.0 0.00 0.38 0.11 99 1016.7
20260901163004 74 120 0.0 1.0 0.00 0.38 0.11 99 1016.9
20260901162504 74 152 0.0 4.0 0.00 0.38 0.11 100 1016.9
20260901162025 74 162 1.0 4.0 0.00 0.38 0.11 100 1016.9
20260901161504 74 159 1.0 4.0 0.00 0.38 0.11 100 1017.0
20260901161004 74 169 1.0 7.0 0.00 0.38 0.11 100 1016.9
20260901160504 74 175 1.0 7.0 0.00 0.38 0.11 100 1017.0
20260901160004 74 166 1.0 3.0 0.00 0.38 0.11 100 1017.1
20260901155504 74 173 1.0 3.0 0.00 0.38 0.11 100 1017.1
20260901155004 74 188 1.0 3.0 0.00 0.38 0.11 100 1017.0
20260901154504 73 163 1.0 9.0 0.00 0.38 0.11 100 1017.1
20260901154004 73 158 1.0 9.0 0.00 0.38 0.11 100 1017.2
20260901153504 73 163 1.0 7.0 0.00 0.38 0.11 100 1017.2
20260901153004 72 216 1.0 4.0 0.00 0.38 0.11 100 1017.2
20260901152504 72 255 0.0 4.0 0.00 0.38 0.11 100 1017.3
20260901152025 72 163 0.0 4.0 0.00 0.38 0.11 100 1017.3
20260901151504 72 165 1.0 4.0 0.00 0.38 0.11 100 1017.2
20260901151004 72 172 1.0 6.0 0.00 0.38 0.11 100 1017.2
20260901150504 72 161 1.0 6.0 0.00 0.38 0.11 100 1017.2
20260901150004 72 145 1.0 4.0 0.00 0.38 0.11 100 1017.2
20260901145504 72 150 1.0 4.0 0.00 0.38 0.11 100 1017.3
20260901145004 72 171 0.0 6.0 0.00 0.38 0.11 100 1017.3
20260901144504 71 169 1.0 6.0 0.00 0.38 0.11 100 1017.3
20260901144025 71 163 1.0 3.0 0.00 0.38 0.11 100 1017.3
20260901143504 71 144 1.0 6.0 0.00 0.38 0.11 100 1017.3
20260901143025 71 146 1.0 6.0 0.00 0.38 0.11 100 1017.3
20260901142525 71 160 0.0 3.0 0.00 0.38 0.11 100 1017.3
20260901142004 71 160 0.0 3.0 0.00 0.38 0.11 100 1017.4
20260901141504 71 160 1.0 3.0 0.00 0.38 0.11 100 1017.4
20260901141025 71 160 1.0 3.0 0.00 0.38 0.11 100 1017.4
20260901140525 71 160 1.0 3.0 0.03 0.38 0.11 100 1017.5
20260901140025 71 158 1.0 6.0 0.04 0.38 0.11 100 1017.6
20260901135504 71 147 0.0 6.0 0.08 0.38 0.11 100 1017.6
20260901135025 71 133 0.0 3.0 0.09 0.38 0.11 100 1017.6
20260901134525 71 170 1.0 4.0 0.09 0.38 0.11 100 1017.5
20260901134004 70 175 1.0 6.0 0.09 0.38 0.11 100 1017.3
20260901133505 70 171 1.0 6.0 0.09 0.38 0.11 100 1017.3
20260901133004 70 178 0.0 3.0 0.09 0.38 0.11 100 1017.3
20260901132504 70 0 0.0 0.0 0.09 0.38 0.11 100 1017.2
20260901132004 70 0 0.0 0.0 0.09 0.38 0.11 100 1017.2
20260901131525 70 0 0.0 0.0 0.09 0.38 0.11 100 1017.2
20260901131004 70 0 0.0 0.0 0.09 0.38 0.11 100 1017.4
20260901130504 70 0 0.0 0.0 0.07 0.35 0.08 100 1017.6
20260901130004 70 0 0.0 0.0 0.06 0.34 0.07 100 1017.6
20260901125504 70 0 0.0 0.0 0.02 0.30 0.03 100 1017.7
20260901125004 70 0 0.0 0.0 0.01 0.29 0.02 100 1017.6
20260901124505 70 0 0.0 0.0 0.01 0.29 0.02 100 1017.4
20260901124004 70 0 0.0 0.0 0.01 0.29 0.02 100 1017.6
20260901123504 70 0 0.0 0.0 0.01 0.29 0.02 100 1017.6
20260901123025 69 0 0.0 0.0 0.01 0.29 0.02 100 1017.5
20260901122504 69 0 0.0 0.0 0.01 0.29 0.02 100 1017.5
20260901122004 69 0 0.0 0.0 0.01 0.29 0.02 100 1017.6
20260901121503 69 0 0.0 0.0 0.01 0.29 0.02 100 1017.8
20260901121004 69 0 0.0 0.0 0.01 0.29 0.02 100 1017.6
20260901120503 69 0 0.0 0.0 0.00 0.28 0.01 100 1017.6
20260901120004 69 0 0.0 0.0 0.00 0.28 0.01 100 1017.5
20260901115504 69 0 0.0 0.0 0.00 0.28 0.01 100 1017.4
20260901115025 69 0 0.0 0.0 0.00 0.28 0.01 100 1017.3
20260901114504 69 0 0.0 0.0 0.00 0.28 0.01 100 1017.2
20260901114004 69 0 0.0 0.0 0.00 0.28 0.01 100 1017.6
20260901113525 69 0 0.0 0.0 0.00 0.28 0.01 100 1017.5
20260901113004 69 0 0.0 0.0 0.00 0.28 0.01 100 1017.6
20260901112503 69 0 0.0 0.0 0.00 0.28 0.01 100 1017.4
20260901112004 69 0 0.0 0.0 0.00 0.28 0.01 100 1017.4
20260901111504 69 0 0.0 0.0 0.00 0.28 0.01 100 1017.4
20260901111004 69 0 0.0 0.0 0.00 0.28 0.01 100 1017.4
20260901110504 69 0 0.0 0.0 0.00 0.28 0.01 100 1017.4
20260901110004 69 0 0.0 0.0 0.00 0.28 0.01 100 1017.4
20260901105504 69 0 0.0 0.0 0.00 0.28 0.01 100 1017.3
20260901105004 69 0 0.0 0.0 0.00 0.28 0.01 100 1017.3
20260901104504 69 0 0.0 0.0 0.00 0.28 0.01 100 1017.2
20260901104003 69 0 0.0 0.0 0.00 0.28 0.01 100 1017.2
20260901103503 69 0 0.0 0.0 0.01 0.28 0.01 100 1017.0
20260901103025 68 0 0.0 0.0 0.01 0.28 0.01 100 1017.2
20260901102504 68 0 0.0 0.0 0.01 0.28 0.01 100 1017.2
20260901102003 68 0 0.0 0.0 0.01 0.28 0.01 100 1017.0
20260901101503 68 0 0.0 0.0 0.01 0.28 0.01 100 1017.1
20260901101025 68 0 0.0 0.0 0.01 0.28 0.01 100 1017.1
20260901100503 68 0 0.0 0.0 0.01 0.28 0.01 100 1017.3
20260901100004 68 0 0.0 0.0 0.01 0.28 0.01 100 1017.3
20260901095503 68 0 0.0 0.0 0.01 0.28 0.01 100 1017.3
20260901095003 68 0 0.0 0.0 0.01 0.28 0.01 100 1017.4
20260901094504 68 0 0.0 0.0 0.01 0.28 0.01 100 1017.3
20260901094003 68 0 0.0 0.0 0.01 0.28 0.01 100 1017.5
20260901093503 68 0 0.0 0.0 0.00 0.27 0.00 100 1017.5
20260901093003 68 0 0.0 0.0 0.00 0.27 0.00 100 1017.6
20260901092503 68 0 0.0 0.0 0.00 0.27 0.00 100 1017.8
20260901092003 68 0 0.0 0.0 0.00 0.27 0.00 100 1017.8
20260901091503 68 0 0.0 0.0 0.00 0.27 0.00 100 1017.8
20260901091003 68 0 0.0 0.0 0.00 0.27 0.00 100 1017.7
20260901090503 68 0 0.0 0.0 0.00 0.27 0.00 100 1017.7
20260901090025 68 0 0.0 0.0 0.00 0.27 0.00 100 1017.7
20260901085524 68 0 0.0 0.0 0.00 0.27 0.00 100 1017.8
20260901085024 68 0 0.0 0.0 0.00 0.27 0.00 100 1017.8
20260901084503 68 0 0.0 0.0 0.00 0.27 0.00 100 1017.7
20260901084003 68 0 0.0 0.0 0.00 0.27 0.00 100 1017.7
20260901083503 68 0 0.0 0.0 0.00 0.27 0.00 100 1017.7
20260901083003 68 0 0.0 0.0 0.00 0.27 0.00 100 1017.6
20260901082503 68 0 0.0 0.0 0.00 0.27 0.00 100 1017.7
20260901082003 68 0 0.0 0.0 0.00 0.27 0.00 100 1017.7
20260901081525 68 0 0.0 0.0 0.00 0.27 0.00 100 1017.9
20260901081003 68 0 0.0 0.0 0.00 0.27 0.00 100 1017.9
20260901080503 68 0 0.0 0.0 0.00 0.27 0.00 100 1018.0
20260901080003 68 0 0.0 0.0 0.00 0.27 0.00 100 1018.3
20260901075503 68 0 0.0 0.0 0.00 0.27 0.00 100 1018.1
20260901075003 68 0 0.0 0.0 0.00 0.27 0.00 100 1018.1
20260901074503 68 0 0.0 0.0 0.00 0.27 0.00 100 1018.1
20260901074003 68 0 0.0 0.0 0.00 0.27 0.00 100 1018.2
20260901073503 68 0 0.0 0.0 0.00 0.27 0.00 100 1018.1
20260901073003 68 0 0.0 0.0 0.00 0.27 0.00 100 1018.1
20260901072503 68 0 0.0 0.0 0.00 0.27 0.00 100 1018.2
20260901072003 68 0 0.0 0.0 0.00 0.27 0.00 100 1018.2
20260901071503 68 0 0.0 0.0 0.00 0.27 0.00 100 1018.1
20260901071003 68 0 0.0 0.0 0.00 0.27 0.00 100 1018.2
20260901070503 68 0 0.0 0.0 0.00 0.27 0.00 100 1018.1
20260901070003 68 0 0.0 0.0 0.00 0.27 0.00 100 1018.1
20260901065503 68 0 0.0 0.0 0.00 0.27 0.00 100 1018.1
20260901065003 68 0 0.0 0.0 0.00 0.27 0.00 100 1018.2
20260901064503 68 0 0.0 0.0 0.00 0.27 0.00 100 1018.1
20260901064024 68 0 0.0 0.0 0.00 0.27 0.00 100 1018.3
20260901063503 68 0 0.0 0.0 0.00 0.27 0.00 100 1018.3
20260901063003 68 0 0.0 0.0 0.00 0.27 0.00 100 1018.4
20260901062503 68 0 0.0 0.0 0.00 0.27 0.00 100 1018.4
20260901062003 68 0 0.0 0.0 0.00 0.27 0.00 100 1018.5
20260901061503 68 0 0.0 0.0 0.00 0.27 0.00 100 1018.4
20260901061003 68 163 0.0 1.0 0.00 0.27 0.00 100 1018.5
20260901060503 68 163 0.0 1.0 0.00 0.27 0.00 100 1018.5
20260901060003 68 163 0.0 1.0 0.00 0.27 0.00 100 1018.6
20260901055503 68 163 0.0 1.0 0.00 0.27 0.00 100 1018.6
20260901055003 68 163 0.0 1.0 0.00 0.27 0.00 100 1018.6
20260901054503 68 0 0.0 0.0 0.00 0.27 0.00 100 1018.7
20260901054024 68 163 0.0 1.0 0.00 0.28 0.00 100 1018.6
20260901053524 68 163 0.0 1.0 0.00 0.28 0.00 100 1018.6
20260901053003 68 163 0.0 1.0 0.00 0.28 0.00 100 1018.7
20260901052503 68 163 0.0 1.0 0.00 0.28 0.00 100 1018.8
20260901052024 68 163 0.0 1.0 0.00 0.28 0.00 100 1018.8
20260901051503 68 163 0.0 1.0 0.00 0.28 0.00 100 1019.0
20260901051003 68 163 0.0 1.0 0.00 0.28 0.00 100 1018.8
20260901050503 68 163 0.0 1.0 0.00 0.28 0.00 100 1018.9
20260901050003 68 0 0.0 0.0 0.00 0.28 0.00 100 1019.1
20260901045503 68 0 0.0 0.0 0.00 0.28 0.00 100 1019.1
20260901045024 68 0 0.0 0.0 0.00 0.28 0.00 100 1019.1
20260901044505 68 0 0.0 0.0 0.00 0.28 0.00 100 1019.2
20260901044024 68 0 0.0 0.0 0.00 0.28 0.00 100 1019.1
20260901043524 68 0 0.0 0.0 0.00 0.28 0.00 100 1019.1
20260901043003 68 0 0.0 0.0 0.00 0.28 0.00 100 1019.1
20260901042503 68 0 0.0 0.0 0.00 0.28 0.00 100 1019.0
20260901042003 68 0 0.0 0.0 0.00 0.28 0.00 100 1019.1
20260901041524 68 0 0.0 0.0 0.00 0.29 0.00 100 1019.0
20260901041003 68 0 0.0 0.0 0.00 0.29 0.00 100 1019.1
20260901040524 68 0 0.0 0.0 0.00 0.31 0.00 100 1019.0
20260901040004 68 0 0.0 0.0 0.00 0.31 0.00 100 1018.9
20260901035506 68 0 0.0 0.0 0.00 0.31 0.31 100 1019.0
20260901035005 68 0 0.0 0.0 0.00 0.31 0.31 100 1019.0
20260901034505 68 0 0.0 0.0 0.01 0.31 0.31 100 1019.1
20260901034005 68 0 0.0 0.0 0.01 0.31 0.31 100 1019.0
20260901033505 68 0 0.0 0.0 0.02 0.31 0.31 100 1019.1
20260901033005 68 163 0.0 1.0 0.02 0.31 0.31 100 1019.1
20260901032505 68 163 0.0 1.0 0.03 0.31 0.31 100 1019.0
20260901032005 68 163 0.0 1.0 0.03 0.31 0.31 100 1019.0
20260901031505 68 163 0.0 1.0 0.03 0.31 0.31 100 1019.0
20260901031005 68 167 0.0 3.0 0.03 0.31 0.31 100 1019.2
20260901030505 68 173 0.0 4.0 0.03 0.31 0.31 100 1019.0
20260901030005 68 171 0.0 4.0 0.03 0.31 0.31 100 1019.1
20260901025526 68 162 0.0 1.0 0.03 0.31 0.31 100 1019.1
20260901025005 68 162 0.0 3.0 0.03 0.31 0.31 100 1019.1
20260901024505 68 162 0.0 3.0 0.02 0.30 0.30 100 1019.2
20260901024005 68 162 0.0 1.0 0.02 0.30 0.30 100 1019.5
20260901023505 68 162 0.0 1.0 0.01 0.29 0.29 100 1019.4
20260901023025 68 162 0.0 1.0 0.01 0.29 0.29 100 1019.6
20260901022504 68 162 0.0 1.0 0.00 0.28 0.28 100 1019.6
20260901022005 68 162 0.0 1.0 0.00 0.28 0.28 100 1019.7
20260901021505 68 162 0.0 1.0 0.00 0.28 0.28 100 1019.8
20260901021005 68 162 0.0 1.0 0.00 0.28 0.28 99 1019.6
20260901020505 68 162 0.0 1.0 0.00 0.28 0.28 100 1019.7
20260901020005 68 162 0.0 1.0 0.00 0.28 0.28 100 1019.8
20260901015525 68 162 0.0 1.0 0.00 0.28 0.28 99 1019.8
20260901015005 68 162 0.0 1.0 0.00 0.28 0.28 99 1019.8
20260901014504 68 0 0.0 0.0 0.00 0.28 0.28 99 1019.9
20260901014005 68 0 0.0 0.0 0.00 0.28 0.28 99 1019.9
20260901013526 68 0 0.0 0.0 0.00 0.28 0.28 99 1019.9
20260901013004 68 162 0.0 1.0 0.00 0.28 0.28 99 1019.8
20260901012505 68 162 0.0 1.0 0.00 0.28 0.28 99 1019.8
20260901012026 68 162 0.0 1.0 0.00 0.28 0.28 99 1019.8
20260901011505 68 0 0.0 0.0 0.00 0.28 0.28 99 1019.9
20260901011005 68 0 0.0 0.0 0.00 0.28 0.28 99 1019.8
20260901010505 68 0 0.0 0.0 0.00 0.28 0.28 99 1019.7
20260901010005 68 162 0.0 1.0 0.00 0.28 0.28 99 1019.6
20260901005504 68 162 0.0 1.0 0.00 0.28 0.28 99 1019.5
20260901005005 68 162 0.0 1.0 0.00 0.28 0.28 99 1019.4
20260901004505 68 162 0.0 1.0 0.00 0.28 0.28 99 1019.4
20260901004025 68 183 0.0 3.0 0.00 0.28 0.28 99 1019.3
20260901003505 67 187 0.0 3.0 0.00 0.28 0.28 99 1019.4
20260901003004 68 190 0.0 3.0 0.00 0.28 0.28 99 1019.4
20260901002505 68 190 0.0 1.0 0.00 0.28 0.28 99 1019.5
20260901002004 68 190 0.0 1.0 0.00 0.28 0.28 99 1019.4
20260901001504 68 0 0.0 0.0 0.00 0.28 0.28 99 1019.4
20260901001004 68 0 0.0 0.0 0.00 0.28 0.28 99 1019.4
20260901000504 68 190 0.0 1.0 0.00 0.28 0.28 99 1019.5
20260901000004 68 190 0.0 1.0 0.00 0.28 0.28 99 1019.4
20260831235504 68 190 0.0 1.0 0.00 0.28 0.28 99 1019.3
20260831235026 68 190 0.0 1.0 0.00 0.28 0.28 99 1019.5
20260831234505 68 190 0.0 1.0 0.00 0.28 0.28 99 1019.5
20260831234025 68 190 0.0 1.0 0.00 0.28 0.28 99 1019.5
20260831233525 68 190 0.0 1.0 0.00 0.28 0.28 99 1019.6
20260831233026 68 190 0.0 1.0 0.00 0.28 0.28 99 1019.6
20260831232504 68 190 0.0 1.0 0.00 0.28 0.28 99 1019.6
20260831232004 68 190 0.0 1.0 0.00 0.28 0.28 99 1019.6
20260831231505 68 187 0.0 4.0 0.00 0.28 0.28 99 1019.6
20260831231004 68 186 0.0 4.0 0.00 0.28 0.28 99 1019.6
20260831230504 68 0 0.0 0.0 0.00 0.28 0.28 99 1019.7
20260831230004 68 0 0.0 0.0 0.00 0.28 0.28 99 1019.7
20260831225504 68 0 0.0 0.0 0.00 0.28 0.28 99 1019.8
20260831225004 68 190 0.0 1.0 0.01 0.28 0.28 99 1019.9
20260831224504 68 190 0.0 1.0 0.01 0.28 0.28 99 1020.0
20260831224004 68 190 0.0 1.0 0.01 0.28 0.28 99 1020.0
20260831223504 68 186 1.0 3.0 0.03 0.28 0.28 99 1020.1
20260831223025 68 191 1.0 3.0 0.09 0.28 0.28 99 1020.1